Home   Weather   Barnsley   Past weeks
Flag for United Kingdom

Past Weather in Barnsley, England, United Kingdom — Yesterday and Last 2 Weeks

Now
70 °F

Passing clouds.


Feels Like: 70 °F
Forecast: 67 / 49 °F
Wind: 5 mph from Southwest

Location: Finningley

Current Time: Sep 19, 2019 at 6:03:21 pm

Latest Report: Sep 19, 2019 at 5:20 pm


Visibility: N/A

Pressure: 30.42 "Hg

Humidity: 50%

Dew Point: 50 °F

Location of BarnsleyLocation

Past Weather in Barnsley — Graph

°F

Barnsley Temperature Yesterday

Maximum temperature yesterday: 64 °F (at 4:20 pm)
Minimum temperature yesterday: 39 °F (at 6:20 am)
Average temperature yesterday: 53 °F

High & Low Weather Summary for the Past Weeks

 TemperatureHumidityPressure
High73 °F (Sep 12, 2:20 pm)100% (Sep 8, 4:50 am)30.66 "Hg (Sep 8, 4:50 am)
Low39 °F (Sep 8, 6:20 am)40% (Sep 13, 3:50 pm)29.86 "Hg (Sep 4, 4:20 pm)
Average56 °F76%30.24 "Hg
* Reported Sep 4 4:20 pm — Sep 19 4:50 pm, Barnsley. Weather by CustomWeather, © 2019

Note: Actual official high and low records may vary slightly from our data, if they occured in-between our weather recording intervals... More about our weather records

Advertising

Barnsley Weather History for the Previous 24 Hours

Scroll right to see more
 ConditionsComfort  
Time TempWeatherWind HumidityBarometerVisibility
4:50 pm
Thu, Sep 19
70 °FSunny.3 mph50%30.42 "Hg10 mi
4:20 pm72 °FSunny.3 mph47%30.42 "Hg10 mi
3:50 pm70 °FPassing clouds.6 mph50%30.42 "HgN/A
3:20 pm70 °FSunny.3 mph50%30.45 "Hg10 mi
2:50 pm70 °FPassing clouds.5 mph53%30.45 "HgN/A
2:20 pm68 °FSunny.5 mph56%30.45 "Hg10 mi
1:50 pm68 °FSunny.2 mph53%30.45 "Hg10 mi
1:20 pm66 °FSunny.3 mph56%30.48 "Hg10 mi
12:50 pm66 °FSunny.3 mph60%30.48 "Hg10 mi
12:20 pm66 °FPassing clouds.5 mph60%30.48 "HgN/A
11:50 am64 °FSunny.3 mph64%30.48 "Hg10 mi
11:20 am63 °FSunny.2 mph68%30.51 "Hg10 mi
10:50 am61 °FSunny.3 mph72%30.51 "Hg10 mi
10:20 am59 °FSunny.1 mph72%30.51 "Hg10 mi
9:50 am57 °FSunny.2 mph77%30.51 "Hg10 mi
9:20 am55 °FSunny.1 mph82%30.51 "Hg10 mi
8:50 am54 °FSunny.No wind88%30.51 "Hg10 mi
8:20 am48 °FSunny.2 mph100%30.48 "Hg10 mi
7:50 am46 °FSunny.1 mph100%30.48 "Hg10 mi
7:20 am45 °FFog.2 mph100%30.48 "Hg6 mi
6:50 am43 °FSunny.2 mph100%30.48 "Hg10 mi
6:20 am45 °FFog.1 mph100%30.45 "HgN/A
5:50 am45 °FFog.2 mph93%30.45 "HgN/A
5:20 am45 °FClear.3 mph100%30.45 "Hg10 mi
4:50 am46 °FClear.1 mph100%30.45 "Hg10 mi
4:20 am48 °FClear.1 mph94%30.45 "Hg10 mi
3:50 am48 °FClear.3 mph94%30.45 "Hg10 mi
3:20 am48 °FClear.3 mph94%30.45 "Hg10 mi
2:20 am48 °FClear.2 mph100%30.48 "Hg10 mi
1:50 am50 °FClear.3 mph94%30.48 "Hg10 mi
1:20 am52 °FClear.5 mph88%30.48 "Hg10 mi
12:50 am54 °FClear.6 mph88%30.48 "Hg10 mi
12:20 am55 °FClear.6 mph82%30.48 "Hg10 mi
11:50 pm
Wed, Sep 18
55 °FClear.2 mph82%30.48 "Hg10 mi
11:20 pm57 °FClear.2 mph77%30.48 "Hg10 mi
10:50 pm57 °FClear.5 mph77%30.45 "Hg10 mi
10:20 pm57 °FClear.5 mph77%30.45 "Hg10 mi
9:50 pm59 °FClear.5 mph68%30.45 "Hg10 mi
9:20 pm59 °FClear.5 mph68%30.45 "Hg10 mi
8:50 pm59 °FClear.5 mph68%30.45 "Hg10 mi
8:20 pm59 °FClear.6 mph72%30.45 "Hg10 mi
7:50 pm57 °FClear.2 mph72%30.42 "Hg10 mi
7:20 pm59 °FClear.1 mph63%30.42 "Hg10 mi
6:50 pm61 °FSunny.3 mph55%30.42 "Hg10 mi
6:20 pm63 °FSunny.6 mph52%30.42 "Hg10 mi
Weather by CustomWeather, © 2019

See weather overview